Showing default

EZIE-A, 63247

Orbit data source: Space-Track

EZIE-A, 63247 is an American payload satellite in SSO that was launched on Sat, 15 Mar 2025 UTC via an FALCON 9 launch vehicle from the Air Force Western Test Range (AFWTR). Payload-class satellites include a variety of spacecraft equipped with specific instruments for various scientific and technological missions. These include communications satellites like Starlink; space stations such as the ISS; scientific satellites like the Hubble; Earth observation satellites from companies like Planet Labs, Umbra, and HawkEye 360; GPS; miniature CubeSats for education and research; and military/defense satellites.

Loading next visibility...
Identifier
63247, 2025-052AP
Orbit
SSO
Country
Flag of USUS
Related business
Manufacturer
APL
Mission
Operational Civil Science
Bus & Motor
CUBESAT 6U, Unknown motor
Mass
~10 kg wet, ~10 kg dry
Launch date (UTC)
2025-03-15 (2 years ago)
Launch vehicle
FALCON 9
Launch site
Air Force Western Test Range (AFWTR)
Object type
Payload
Rocket body
Debris
Shape & HBR
Box, 0.4 m
Radar Cross Section
0.035 m², Medium (>0.1 m² and < 1m²)

Expand to show TLE details & history
Last TLE update: 15 hours ago

TLE from 15 hours ago
0 EZIE-A
1 63247U 25052AP  26264.65712603  .00002667  00000-0  23119-3 0  9996
2 63247  97.6765 155.2500 0001246 189.1892 170.9308 14.97930134 83104
Epoch: 2026-09-21T15:46Z
TLE epoch observation values (Epoch: 2026-09-21T15:46:15.688Z)
Latitude
-0.00003°
Longitude
-81.84917°
Altitude
577.201 km
Speed
7.572 km/s
True Right ascension
10h 21m 00s
True Declination
0° 00' 00"
Sunlit
Object was in daylight at epoch
Visualization orbit readout
Latitude
Unknown
Longitude
Unknown
Altitude
Unknown
Speed
Unknown
Apparent Right ascension
Unknown
Apparent Declination
Unknown
Sunlit
N/A
Visualization observer readout
Local Sidereal Time
23:48:48
Azimuth
Unknown
Elevation
Unknown
Doppler factor
Unknown
Orbital elements
Apogee altitude
571.165 km
Perigee altitude
569.434 km
Semi-major axis
6,948.437 km
Eccentricity
0.00012
Inclination
97.6765°
RAAN
155.25°
Arg. of periapsis
189.1892°
True anomaly
170.93305°
Mean anomaly
170.9308°
Eccentric anomaly
170.93193°
Mean motion
3.74725 °/min
Orbital period
96.07 mins
BSTAR
0.00023119
Loading maneuver chart data...
Computing Atmospheric mass density...
Loading historical data...
Loading historical data...
Loading historical data...
Loading historical data...
Loading historical data...
Loading historical data...
Loading historical data...

Documentation

Showing up to 5 results
|